Temperature
22 20 21 21 21 22 22 21 20 20 20 18 17 17 17 17 16 16 16 17 17 17 18 18 18 18 18 18 18 18 17 17 17 16 16 16 15 15 14 14 14 13 13 13
21 21 22 22 22 22 22 21 20 19 19 18 17 17 17 17 16 16 16 17 17 18 18 18 18 18 18 18 18 17 17 17 16 16 15 15 14 14 13 13 13 13 12 12
23 23 23 23 23 22 22 21 20 19 19 18 18 18 17 17 17 17 17 17 18 18 19 18 18 18 18 18 18 17 17 16 16 15 15 14 14 13 13 13 12 12 12 12
23 23 23 23 23 23 21 21 21 19 18 16 17 17 17 16 16 17 17 18 18 19 19 19 19 18 18 18 17 17 16 16 16 15 14 14 13 13 12 12 12 11 11 11
23 23 23 23 23 22 21 20 19 18 17 17 16 16 16 16 17 17 17 18 19 19 19 19 19 19 18 18 17 17 16 16 15 15 14 13 13 12 12 12 11 11 11 11
22 23 23 23 22 22 20 19 17 16 16 17 16 16 16 16 17 17 17 19 19 19 19 19 19 19 18 18 17 17 16 16 15 14 14 13 12 12 12 11 11 11 11 11
22 23 23 22 22 21 20 18 17 18 16 16 16 16 16 17 17 17 18 19 19 19 19 19 19 19 18 18 17 17 16 15 15 14 13 12 12 11 11 11 11 10 10 10
22 22 23 23 22 21 20 19 18 19 18 17 16 16 16 17 18 18 18 19 19 19 19 19 19 19 18 18 17 16 15 15 14 13 12 12 11 11 11 11 10 10 10 10
22 22 23 24 23 21 20 18 17 16 16 17 17 16 17 18 18 18 18 19 19 20 19 19 19 19 18 17 17 16 15 14 13 12 12 12 11 11 11 11 10 10 10 10
22 22 23 23 23 22 20 17 15 16 17 18 18 17 17 19 19 18 18 18 19 19 19 19 19 18 17 17 16 15 14 13 13 12 12 11 11 11 10 10 10 10 10 9
21 21 22 22 23 23 21 19 15 14 16 16 17 17 17 17 18 18 18 19 20 20 20 19 19 18 17 16 15 15 14 13 12 12 11 11 11 10 10 10 10 10 9 9
19 18 19 21 21 22 22 21 17 18 17 15 16 17 18 17 17 18 19 20 20 20 20 19 18 17 17 16 15 14 13 13 12 12 11 11 11 10 10 10 10 9 9 9
18 18 19 20 20 21 22 20 17 15 14 14 16 18 18 17 17 18 19 20 20 20 19 18 18 17 16 15 15 14 13 12 12 11 11 11 10 10 10 10 9 9 9 9
18 17 19 20 20 21 21 21 18 17 16 16 16 18 18 18 17 17 19 20 20 19 19 18 17 17 16 15 14 13 13 12 12 11 11 10 10 10 10 9 9 9 9 8
19 20 20 19 20 20 21 21 20 18 18 17 18 17 18 17 16 18 19 19 19 19 19 18 17 17 16 15 14 13 12 12 11 11 10 10 10 10 9 9 9 9 9 8
18 20 21 21 22 21 21 22 21 21 20 18 19 18 17 18 18 18 18 19 19 19 19 18 17 16 15 14 13 13 12 11 11 11 10 10 10 10 9 9 9 9 9 8
17 18 19 19 20 21 21 22 22 22 20 19 19 19 18 17 16 19 20 20 20 20 19 18 17 16 15 14 13 13 12 11 11 10 10 10 9 9 9 9 9 9 9 8
16 16 16 17 20 21 20 20 21 21 21 19 19 18 17 18 20 21 21 21 20 19 19 18 17 16 15 14 13 12 12 11 11 10 10 10 9 9 9 9 9 9 8 8
15 16 15 16 18 19 20 21 21 21 21 19 18 18 17 17 18 19 21 20 20 19 18 17 16 15 15 14 13 12 12 11 10 10 10 9 9 9 9 9 9 8 8 8
15 15 15 15 19 19 20 21 21 21 20 19 18 17 16 16 16 18 22 20 20 19 18 17 16 15 15 14 13 12 12 11 11 10 10 9 9 9 9 9 9 8 8 8
17 16 16 16 17 18 19 20 21 21 19 22 21 20 18 17 19 22 22 21 20 19 18 17 16 16 15 14 13 13 12 11 11 10 10 9 9 9 9 8 8 8 8 8
18 17 16 15 17 18 20 20 19 20 23 23 23 23 21 22 22 22 21 21 20 19 18 17 16 16 15 14 13 13 12 11 11 10 10 9 9 9 8 8 8 8 8 8
16 17 16 16 18 20 21 21 23 23 23 24 24 24 23 23 22 22 21 21 20 19 18 17 17 16 15 14 13 13 12 11 11 10 10 9 9 9 8 8 8 8 8 8
17 15 15 15 17 20 22 23 24 24 24 25 24 24 23 23 23 22 22 21 20 20 19 18 17 16 15 14 13 13 12 11 11 10 10 9 9 9 9 8 8 8 8 8
17 17 16 16 16 19 23 24 24 24 24 24 24 24 23 23 22 22 22 21 21 20 19 18 17 16 15 14 14 13 12 11 11 10 10 9 9 9 9 9 8 8 8 8
14 16 16 17 19 17 20 21 22 22 23 24 23 23 23 23 22 22 22 21 21 20 19 18 17 16 15 14 14 13 12 11 11 11 10 10 9 9 9 8 9 9 8 8
Wind_Speed
3 3 3 6 7 6 4 4 3 1 1 4 4 4 4 3 3 4 4 5 6 7 6 6 6 6 5 5 4 4 3 2 2 1 1 1 2 2 3 3 5 6 6 6
4 3 7 5 4 4 3 4 3 2 2 3 3 2 2 3 3 4 5 6 7 6 5 6 7 7 7 6 6 5 4 3 2 1 1 1 0 2 2 3 5 6 6 7
5 5 2 2 2 3 2 4 5 5 3 4 2 1 2 2 3 4 5 6 7 8 9 8 8 8 7 8 8 6 5 4 3 2 1 2 2 3 3 3 3 5 7 7
3 3 0 1 2 4 1 1 6 6 5 4 4 3 3 1 2 4 5 6 8 8 8 8 8 8 9 9 6 6 5 5 4 3 2 1 1 3 4 3 4 6 6 6
4 1 1 2 2 4 3 6 8 6 6 4 5 2 6 2 3 5 6 6 8 8 8 8 9 9 7 6 5 5 5 4 3 3 3 3 3 4 3 4 6 6 5 5
4 2 2 1 3 6 7 8 8 7 5 3 2 1 6 4 5 5 5 6 7 6 6 6 5 5 4 4 4 4 4 3 3 3 3 4 5 5 5 6 5 5 4 5
7 5 1 3 4 4 6 6 5 5 4 4 1 2 8 7 7 7 7 7 6 4 5 5 5 5 5 5 4 3 4 3 3 3 4 5 6 6 6 6 5 5 4 4
3 6 3 2 5 6 4 7 6 4 3 4 2 4 7 7 6 6 7 6 4 4 5 6 6 6 6 6 5 4 4 4 4 4 5 5 5 5 5 6 5 6 5 6
3 5 4 1 2 8 6 4 6 7 3 2 4 6 8 4 4 5 5 5 5 5 5 6 6 6 5 5 4 4 4 4 5 5 6 6 6 6 6 6 5 5 6 6
6 4 5 3 4 4 5 9 6 6 4 1 5 5 5 7 7 6 5 6 6 6 6 6 5 4 3 3 3 3 4 5 6 6 6 5 6 6 6 6 7 7 7 6
3 3 5 4 2 1 3 5 6 5 5 6 3 7 7 9 9 9 8 7 8 8 7 5 4 2 2 2 3 4 4 5 6 6 6 6 6 6 6 6 7 7 7 7
4 4 2 5 4 1 2 5 7 5 4 5 4 8 6 8 8 8 8 8 7 7 5 3 3 2 2 3 4 5 5 6 7 6 6 6 6 6 6 7 8 7 8 8
6 5 3 8 8 5 2 3 5 6 6 6 5 7 3 2 4 7 8 7 6 5 5 3 2 3 4 5 5 6 6 7 7 6 6 6 6 7 7 8 8 8 8 9
6 5 6 5 7 4 5 2 5 6 5 6 8 9 7 6 7 7 7 6 5 5 5 5 4 5 6 6 6 6 7 7 6 5 6 6 7 7 7 8 8 8 8 9
6 4 6 7 6 4 5 7 6 8 8 9 9 9 11 10 10 8 6 5 5 6 7 8 7 6 6 6 6 6 7 7 5 5 6 7 7 7 7 8 8 8 8 9
4 5 3 4 3 4 6 7 5 6 5 7 5 9 8 4 4 5 6 7 8 8 9 9 8 7 7 7 7 7 7 7 5 6 7 7 7 7 8 8 8 9 9 9
4 7 5 4 5 4 5 6 4 5 6 8 9 9 3 5 9 10 9 9 10 10 10 9 9 8 8 8 7 7 7 6 5 6 7 7 7 8 8 9 9 10 9 9
8 6 5 2 2 4 9 5 6 5 6 7 7 6 7 9 7 6 8 10 11 10 10 10 9 8 7 6 6 6 6 6 6 7 7 7 7 8 9 9 10 10 9 9
5 8 5 4 3 7 10 5 5 5 6 7 8 6 4 4 3 5 8 10 11 11 10 9 9 8 6 7 7 5 6 6 6 7 7 8 7 9 9 10 10 9 9 9
5 5 6 4 4 6 10 5 4 4 6 7 9 9 8 8 3 8 9 11 11 10 8 8 7 6 7 7 5 5 7 6 8 8 8 7 7 8 10 10 10 9 8 10
3 3 4 5 5 9 9 2 6 3 9 7 11 11 12 12 12 7 6 10 12 11 10 9 7 7 8 6 5 6 7 8 8 7 7 7 8 8 9 9 8 9 9 9
4 3 4 5 3 7 4 7 9 11 6 5 11 12 14 15 11 7 7 10 11 11 10 9 8 8 7 6 6 8 9 9 6 6 7 8 8 8 8 8 9 8 8 9
6 8 6 8 8 8 5 9 9 5 6 8 10 13 16 14 12 11 10 11 11 11 10 9 9 9 7 6 7 9 9 7 6 6 7 8 8 8 8 8 9 8 7 7
5 4 4 5 10 9 9 8 9 8 10 11 10 11 13 15 14 13 12 11 11 11 10 8 9 9 8 8 8 10 8 6 5 7 7 7 8 9 8 7 6 7 7 7
7 5 4 6 10 10 9 7 7 7 8 9 8 9 13 15 14 13 12 12 11 10 8 8 9 10 11 8 8 9 7 6 6 7 7 7 7 8 8 8 7 8 8 8
4 5 6 8 9 5 8 9 9 7 8 8 6 6 7 12 14 12 12 11 10 10 8 8 10 10 10 8 9 8 6 6 6 6 6 6 6 7 7 8 9 9 10 12
Wind_Direction
95 83 224 225 199 197 180 162 167 162 69 86 109 136 178 197 199 185 186 196 199 204 203 192 188 189 190 200 203 204 189 183 143 91 75 39 344 335 341 341 345 345 346 346
46 264 240 215 186 176 167 150 152 102 60 99 125 159 195 203 212 205 199 212 213 211 210 208 205 204 206 210 214 215 213 206 197 162 151 161 255 302 294 310 324 335 343 342
211 247 239 183 179 176 194 177 173 151 113 64 95 44 198 210 221 217 214 219 221 215 213 213 211 216 218 221 218 216 215 213 211 186 115 50 18 349 335 325 320 324 330 328
251 261 222 189 213 184 267 193 137 122 100 26 36 328 296 264 261 231 226 226 227 227 222 217 214 219 222 226 215 208 209 212 213 182 166 193 246 274 272 282 292 304 312 316
280 242 221 241 258 153 95 74 88 91 93 50 27 30 298 338 272 254 242 239 237 231 224 221 218 218 220 213 201 202 202 212 212 195 193 212 245 253 276 290 293 298 303 306
270 282 208 174 46 103 119 76 60 52 63 18 345 84 292 261 234 252 245 241 242 236 224 215 208 196 196 180 176 178 187 219 225 218 219 224 250 268 284 289 291 295 300 302
346 342 307 127 91 52 82 86 38 5 12 272 266 236 255 254 235 231 243 249 248 229 211 197 187 183 181 177 178 177 186 227 242 243 249 246 250 256 259 269 274 282 290 292
16 317 279 190 168 164 151 131 153 199 229 282 309 255 258 253 247 238 239 246 246 221 203 194 189 183 184 184 177 175 193 231 250 254 263 264 257 250 253 257 258 264 266 273
175 276 297 263 162 134 136 138 144 123 112 10 298 292 302 259 255 238 232 223 222 209 197 190 182 180 184 184 187 195 208 239 257 260 266 269 263 253 258 265 263 265 266 274
169 253 301 312 82 57 127 137 105 111 131 276 303 288 254 254 240 226 212 205 204 190 191 187 183 186 194 202 213 221 227 243 259 264 262 264 262 262 263 268 271 271 272 272
130 170 315 6 61 163 119 98 102 105 142 151 244 270 226 223 224 220 222 208 197 195 197 198 200 204 215 234 242 252 258 262 270 270 269 272 275 276 277 273 272 274 277 278
120 118 302 290 291 298 186 161 149 149 191 167 181 265 258 232 232 217 218 208 201 198 196 196 202 211 236 253 261 265 269 270 269 269 271 272 276 281 282 279 278 278 279 281
132 102 36 350 344 355 28 123 134 123 118 152 176 261 292 253 215 211 209 204 198 196 189 188 206 230 246 257 264 270 273 273 276 276 274 279 281 282 281 281 283 283 281 283
118 111 154 194 229 269 302 258 155 139 155 196 220 247 278 242 221 216 208 200 191 196 195 203 226 241 250 260 265 271 277 276 279 279 277 278 278 278 279 282 284 283 281 282
117 163 209 233 243 250 257 264 208 196 196 193 229 229 246 230 218 216 204 189 189 204 212 218 226 239 251 264 270 270 274 278 278 279 278 275 278 280 282 283 284 285 284 283
117 168 184 282 264 262 261 269 238 212 200 215 245 259 252 229 167 192 198 193 206 217 224 229 233 239 247 252 260 266 270 274 274 273 274 279 283 285 285 285 287 288 288 287
141 144 146 256 305 351 290 252 228 231 212 188 214 242 208 178 196 208 207 204 211 220 224 227 231 234 240 244 246 253 261 272 274 272 276 281 283 286 287 291 292 290 288 287
142 134 146 189 33 251 250 249 217 227 242 212 230 243 208 209 209 220 204 200 213 219 222 227 229 233 239 239 243 251 262 268 272 275 278 282 285 287 291 292 291 288 287 287
142 137 131 140 194 271 293 268 184 186 263 220 216 224 179 105 59 297 225 205 211 213 214 220 221 221 229 238 242 250 263 268 272 273 274 279 282 288 293 293 290 290 290 291
80 106 124 141 170 234 252 260 161 117 280 234 194 193 165 130 171 253 228 204 217 221 218 218 216 213 229 240 232 238 257 265 266 266 269 276 280 284 288 288 288 288 288 289
58 81 147 174 210 255 254 222 131 163 244 229 193 190 172 184 206 224 209 200 209 214 217 211 204 212 227 229 213 236 252 257 259 264 272 279 281 283 283 283 283 288 291 293
188 173 189 152 190 260 238 149 181 219 238 215 200 194 192 212 223 228 221 212 208 211 213 202 203 223 232 219 210 236 250 253 259 263 272 279 284 286 289 286 291 291 290 294
198 192 188 190 218 245 231 216 238 229 235 232 211 208 202 212 223 224 223 220 215 211 208 200 203 223 235 223 211 232 248 249 251 262 272 281 290 290 285 284 290 297 295 293
267 174 172 244 267 266 268 260 259 236 233 241 224 210 196 208 219 220 221 218 216 213 208 199 199 218 235 232 224 232 246 244 243 261 277 286 293 297 297 291 284 286 290 294
240 190 208 256 275 298 298 281 278 276 261 257 242 215 207 211 220 217 218 216 213 211 205 194 201 217 231 232 235 239 239 228 240 259 275 286 288 289 297 298 286 281 275 264
233 198 204 241 249 236 277 309 326 312 291 273 255 245 225 212 223 218 219 215 205 204 197 201 210 220 231 231 238 242 231 218 232 260 275 281 289 293 295 303 309 283 268 276
Height
1504 1509 1512 1509 1506 1506 1509 1514 1518 1518 1515 1518 1522 1524 1524 1524 1525 1525 1526 1527 1528 1528 1530 1530 1531 1533 1534 1535 1536 1537 1537 1538 1538 1537 1536 1535 1533 1531 1529 1527 1525 1523 1522 1520
1509 1510 1502 1500 1501 1504 1507 1514 1518 1518 1516 1519 1524 1525 1524 1524 1525 1524 1525 1526 1527 1528 1529 1530 1530 1532 1533 1534 1535 1536 1536 1536 1536 1535 1534 1532 1530 1528 1526 1524 1522 1520 1518 1517
1508 1503 1498 1500 1502 1505 1508 1512 1515 1518 1519 1521 1524 1527 1526 1524 1524 1524 1525 1525 1526 1527 1527 1528 1529 1530 1532 1533 1534 1534 1535 1534 1534 1533 1531 1530 1528 1526 1524 1521 1519 1517 1515 1514
1503 1499 1499 1501 1502 1503 1511 1506 1509 1515 1524 1534 1530 1539 1528 1525 1524 1522 1523 1523 1524 1525 1526 1527 1528 1529 1530 1531 1532 1532 1532 1532 1531 1530 1529 1527 1525 1523 1521 1518 1516 1514 1513 1511
1503 1499 1500 1502 1500 1500 1508 1506 1511 1518 1527 1535 1536 1541 1535 1526 1524 1521 1520 1520 1521 1522 1523 1524 1525 1527 1528 1529 1529 1530 1530 1529 1528 1527 1526 1524 1522 1520 1518 1516 1513 1511 1510 1508
1500 1497 1497 1499 1499 1500 1505 1512 1519 1527 1534 1545 1541 1544 1539 1528 1522 1518 1517 1517 1518 1519 1520 1521 1523 1524 1525 1526 1527 1527 1527 1526 1525 1524 1523 1521 1519 1517 1515 1512 1510 1508 1506 1504
1506 1500 1497 1497 1503 1505 1508 1523 1541 1543 1552 1549 1541 1543 1537 1519 1515 1515 1514 1514 1515 1516 1518 1519 1520 1522 1523 1524 1524 1524 1524 1523 1522 1521 1519 1518 1516 1514 1511 1509 1507 1504 1502 1500
1516 1516 1499 1496 1500 1506 1511 1519 1540 1548 1551 1548 1541 1542 1527 1512 1511 1511 1511 1512 1513 1514 1516 1517 1519 1520 1521 1522 1522 1522 1521 1520 1519 1518 1516 1514 1513 1510 1508 1506 1504 1501 1498 1496
1515 1513 1496 1494 1494 1500 1511 1519 1522 1539 1545 1549 1543 1534 1519 1509 1509 1509 1509 1510 1511 1512 1514 1515 1517 1518 1519 1520 1519 1519 1518 1517 1516 1514 1513 1511 1509 1507 1505 1503 1500 1498 1495 1493
1505 1511 1501 1496 1495 1500 1504 1515 1529 1540 1550 1551 1542 1536 1530 1512 1508 1507 1507 1508 1509 1511 1512 1514 1516 1517 1517 1517 1517 1516 1515 1514 1513 1511 1510 1508 1506 1504 1502 1499 1497 1494 1491 1489
1503 1513 1508 1501 1501 1504 1508 1516 1527 1539 1539 1550 1551 1540 1511 1507 1503 1504 1504 1505 1507 1509 1511 1513 1514 1515 1516 1515 1515 1514 1513 1511 1510 1508 1506 1504 1502 1500 1498 1495 1492 1490 1487 1485
1505 1515 1519 1509 1500 1498 1500 1507 1520 1530 1537 1543 1546 1535 1500 1500 1499 1500 1501 1503 1505 1508 1510 1512 1513 1513 1513 1513 1512 1511 1510 1508 1506 1504 1503 1501 1498 1496 1493 1491 1488 1485 1482 1480
1505 1516 1527 1523 1516 1505 1503 1505 1513 1523 1535 1544 1543 1526 1498 1497 1497 1497 1499 1501 1504 1506 1508 1510 1511 1511 1511 1510 1509 1508 1506 1504 1503 1501 1499 1496 1494 1491 1489 1486 1483 1480 1477 1474
1498 1513 1522 1526 1521 1509 1507 1504 1511 1517 1529 1534 1528 1515 1500 1496 1496 1496 1497 1499 1502 1504 1506 1507 1508 1508 1508 1507 1506 1504 1503 1501 1499 1497 1494 1492 1490 1487 1484 1481 1478 1475 1472 1469
1497 1509 1509 1509 1505 1505 1505 1502 1503 1509 1511 1518 1511 1508 1497 1492 1492 1493 1495 1498 1500 1502 1503 1505 1505 1505 1505 1504 1502 1501 1499 1497 1495 1493 1490 1488 1485 1482 1479 1476 1473 1469 1466 1463
1497 1504 1505 1506 1501 1502 1502 1497 1496 1498 1501 1504 1502 1500 1488 1488 1490 1492 1494 1496 1497 1499 1501 1502 1502 1502 1501 1500 1499 1497 1495 1493 1491 1489 1486 1483 1481 1477 1474 1471 1467 1464 1461 1458
1500 1505 1511 1514 1506 1502 1507 1494 1492 1492 1491 1495 1499 1492 1486 1487 1488 1489 1491 1493 1494 1496 1498 1499 1499 1498 1498 1496 1495 1493 1491 1489 1487 1484 1482 1479 1476 1472 1469 1466 1462 1458 1455 1452
1500 1506 1514 1516 1510 1516 1503 1486 1486 1488 1486 1487 1486 1484 1484 1483 1484 1487 1488 1490 1491 1493 1494 1495 1495 1494 1494 1492 1491 1489 1487 1485 1483 1480 1478 1475 1471 1468 1464 1461 1457 1454 1451 1448
1493 1503 1515 1521 1519 1511 1495 1484 1484 1487 1486 1481 1482 1481 1482 1483 1485 1485 1485 1486 1488 1489 1490 1491 1491 1490 1490 1488 1487 1485 1483 1481 1479 1476 1473 1471 1467 1463 1460 1456 1453 1450 1447 1444
1496 1499 1510 1518 1516 1516 1495 1479 1479 1484 1489 1476 1477 1478 1480 1483 1490 1484 1480 1482 1483 1485 1486 1486 1487 1486 1485 1485 1483 1481 1479 1477 1474 1472 1469 1466 1462 1459 1455 1452 1449 1446 1443 1439
1500 1504 1508 1514 1514 1504 1482 1477 1480 1494 1489 1470 1471 1472 1475 1477 1477 1476 1476 1477 1479 1480 1481 1482 1482 1482 1481 1481 1479 1477 1475 1473 1470 1468 1465 1461 1458 1454 1451 1448 1445 1442 1438 1435
1498 1503 1507 1513 1513 1503 1475 1477 1480 1476 1467 1466 1466 1467 1468 1469 1470 1472 1473 1474 1475 1476 1477 1478 1478 1478 1478 1476 1475 1473 1471 1469 1466 1463 1460 1457 1453 1450 1447 1443 1440 1438 1434 1431
1493 1492 1494 1497 1492 1476 1472 1471 1468 1467 1465 1463 1462 1462 1463 1464 1466 1467 1468 1469 1470 1471 1472 1473 1473 1473 1473 1472 1471 1468 1467 1464 1462 1459 1456 1452 1449 1446 1443 1439 1436 1433 1430 1427
1484 1483 1486 1486 1477 1470 1468 1466 1464 1462 1460 1459 1458 1458 1459 1460 1460 1462 1463 1464 1465 1466 1467 1468 1469 1468 1468 1468 1466 1465 1463 1460 1457 1455 1452 1448 1445 1442 1439 1436 1433 1429 1426 1422
1480 1480 1483 1482 1473 1467 1464 1463 1461 1459 1457 1455 1454 1454 1454 1454 1455 1456 1457 1458 1460 1461 1462 1464 1464 1464 1464 1464 1462 1461 1458 1456 1453 1450 1447 1444 1440 1437 1434 1431 1429 1425 1422 1419
1477 1478 1480 1477 1468 1468 1464 1462 1458 1456 1453 1452 1450 1450 1450 1450 1450 1451 1452 1453 1455 1456 1458 1459 1460 1460 1460 1459 1458 1456 1454 1452 1449 1446 1443 1439 1436 1433 1430 1427 1424 1422 1419 1415